Regional Weather Roundup
Issued by NWS

Home | Current Version | Previous Version | Text Only | Print | Product List | Glossary Off
Versions: 1 2 3 4 5 6 7 8 9 10 11 12 13 14 15 16 17 18 19 20 21 22 23 24 25 26 27 28 29 30 31 32 33 34 35 36 37 38 39 40 41 42 43 44 45 46 47 48 49 50

000
ASUS45 KABQ 191910
RWRNM
WEATHER ROUNDUP FOR NEW MEXICO
NATIONAL WEATHER SERVICE ALBUQUERQUE NM
100 PM MDT SUN OCT 19 2014

NOTE: "FAIR" MEANS FEW OR NO CLOUDS BELOW 12,000 FEET AGL WITH NO
       SIGNIFICANT WEATHER OR OBSTRUCTIONS TO VISION.

      THIS PRODUCT IS RELEASED AS TWO VERSIONS.  ONE VERSION NEAR
      THE TOP OF THE HOUR CONTAINING PRELIMINARY DATA FROM ALBUQUERQUE
      AND OTHER STATIONS.  A FINAL VERSION WITH ADDITIONAL DATA IS
      ISSUED ABOUT 10 MINUTES AFTER THE HOUR.

NMZ501-503-504-510>518-192000-
NORTHWEST PLATEAU/NORTHCENTRAL MOUNTAINS

CITY           SKY/WX    TMP DP  RH WIND       PRES   REMARKS
FARMINGTON     SUNNY     68  44  42 E8        30.12F
LOS ALAMOS     MOSUNNY   61  43  52 E5        30.25F
SANTA FE       SUNNY     66  43  43 CALM      30.18F
TAOS           PTSUNNY   64  37  36 NW7       30.22F
ANGEL FIRE     FAIR      58  35  40 NW7       30.27F

$$
NMZ402-403-502-505>509-192000-
WESTCENTRAL MOUNTAINS/SOUTHWEST MOUNTAINS

CITY           SKY/WX    TMP DP  RH WIND       PRES   REMARKS
GALLUP         MOSUNNY   69  40  34 N10       30.15F
GRANTS         PTSUNNY   66  43  42 SE16G23   30.20F
SILVER CITY    PTSUNNY   63  50  63 E16       30.14F

$$
NMZ407-409-411-412-192000-
SOUTHERN DESERTS

CITY           SKY/WX    TMP DP  RH WIND       PRES   REMARKS
LORDSBURG      FAIR      72  50  46 MISG      30.04F
DEMING         PTSUNNY   72  52  49 E12G28    30.06F
LAS CRUCES     PTSUNNY   72  50  46 E9        30.10F
HOLLOMAN AFB   PTSUNNY   64  54  69 NW8       30.10S
T OR C         CLOUDY    59  52  77 N10       30.15F

$$
NMZ519>523-192000-
CENTRAL VALLEYS/CENTRAL HIGHLANDS

CITY           SKY/WX    TMP DP  RH WIND       PRES   REMARKS
ALBUQUERQUE    PTSUNNY   66  45  46 S15       30.19F
DOUBLE EAGLE   PTSUNNY   64  45  48 S9        30.20F
MORIARTY ARPT  FAIR      69  42  38 S9        30.20F
CLINES CORNERS SUNNY     65  42  43 SW10G16   30.21F
BELEN          CLOUDY    57  50  77 SE6       30.19F
SOCORRO        CLOUDY    57  51  80 CALM      30.19F

$$
NMZ524>526-539-540-192000-
SOUTHCENTRAL MOUNTAINS

CITY           SKY/WX    TMP DP  RH WIND       PRES   REMARKS
RUIDOSO        NOT AVBL

$$
NMZ527>531-192000-
NORTHEAST HIGHLANDS/NORTHEAST PLAINS

CITY           SKY/WX    TMP DP  RH WIND       PRES   REMARKS
LAS VEGAS      MOSUNNY   68  41  37 VRB6      30.19F
RATON          MOSUNNY   67  42  40 SE5       30.15F
CLAYTON        SUNNY     72  46  39 SW10      30.08F

$$
NMZ532>537-192000-
EASTCENTRAL PLAINS

CITY           SKY/WX    TMP DP  RH WIND       PRES   REMARKS
TUCUMCARI      MOSUNNY   75  51  43 SW13G20   30.08F
CANNON AFB     PTSUNNY   67  53  58 S12       30.14F
CLOVIS AIRPORT CLOUDY    66  52  59 S15G21    30.16F

$$
NMZ028-029-538-192000-
SOUTHEAST PLAINS

CITY           SKY/WX    TMP DP  RH WIND       PRES   REMARKS
ROSWELL        CLOUDY    66  52  60 VRB6      30.12F
CARLSBAD       PTSUNNY   68  55  63 CALM      30.10F
HOBBS          PTSUNNY   66  63  88 VRB6      30.13F


$$


USA.gov is the U.S. government's official web portal to all federal, state and local government web resources and services.